User: anonymous   Login
Location: Oshawa
(43.9000°N, 78.8670°W)
Time: 17:36:56
(UTC-05:00)
Language:

CZ-4C R/B - Orbit

View from above orbital plane
View from above orbital plane
View from above satellite
View from above satellite

Ground track
Ground track

The orbit data is extracted from the following two-line orbital elements,

1 32290U 07055B   14328.21134140  .00012046  00000-0  44588-3 0   162
2 32290 097.5614 044.1685 0084046 208.9764 206.6858 15.24493937388636
Epoch (UTC): 24 November 2014 05:04:19
Eccentricity: 0.0084046
inclination: 97.5614°
perigee height: 434 km
apogee height: 550 km
right ascension of ascending node: 44.1685°
argument of perigee: 208.9764°
revolutions per day: 15.24493937
mean anomaly at epoch: 206.6858°
orbit number at epoch: 38863

The dashed part of the orbit path shows where the satellite is in the earth's shadow,  

DLR